Weather History for KCMX - October, 2012

Change the Weather History Date:

Sunday, October 7, 2012

  Actual Average (WUND) Record (WUND)
Temperature  
Mean Temperature 38 °F -  
Max Temperature 48 °F - - (-1)
Min Temperature 30 °F - - (-1)
Degree Days  
Heating Degree Days 27    
Moisture  
Dew Point 27 °F    
Average Humidity 65    
Maximum Humidity 96    
Minimum Humidity 36    
Precipitation  
Precipitation 0.07 in - - ()
Sea Level Pressure  
Sea Level Pressure 30.02 in    
Wind  
Wind Speed 7 mph (WSW)    
Max Wind Speed 21 mph    
Max Gust Speed 31 mph    
Visibility 9 miles    
Events Snow    
Averages and records for this station are not official NWS values.
T = Trace of Precipitation, MM = Missing Value Source: NWS Daily Summary

Daily Weather History Graph

Daily Weather History Graph

Search for Another Location

Airport or City:

Trip Planner

Search our weather history database for the weather conditions in past years. The results will help you decide how hot, cold, wet, or windy it might be!

Date:

Astronomy

Oct. 07, 2012 Rise Set
Actual Time 8:01 AM EDT 7:20 PM EDT
Civil Twilight 7:31 AM EDT 7:51 PM EDT
Nautical Twilight 6:55 AM EDT 8:26 PM EDT
Astronomical Twilight 6:20 AM EDT 9:02 PM EDT
Moon No Moon Rise 2:55 PM EDT (10/7)
Length of Visible Light 12h 20m
Length of Day
11h 18m
Waning Gibbous, 56% of the Moon is Illuminated
Oct 7
Waning Gibbous
Oct 8
Last Quarter
Oct 15
New
Oct 21
First Quarter
Oct 29
Full

Hourly Weather History & Observations

Time (EDT) Temp. Windchill Dew Point Humidity Pressure Visibility Wind Dir Wind Speed Gust Speed Precip Events Conditions
12:53 AM 35.6 °F 31.7 °F 30.2 °F 81% 30.08 in 4.0 mi WSW 4.6 mph - N/A Snow Light Snow
1:12 AM 37.4 °F 33.8 °F 30.2 °F 75% 30.08 in 4.0 mi SSW 4.6 mph - 0.01 in Snow Light Snow
1:25 AM 35.6 °F 32.8 °F 30.2 °F 81% 30.07 in 8.0 mi SSW 3.5 mph - 0.02 in Snow Light Snow
1:53 AM 36.0 °F 31.1 °F 28.9 °F 76% 30.10 in 10.0 mi SW 5.8 mph - 0.02 in   Overcast
2:45 AM 35.6 °F 31.7 °F 30.2 °F 81% 30.08 in 2.5 mi NW 4.6 mph 19.6 mph 0.01 in Snow Light Snow
2:53 AM 33.8 °F - 30.2 °F 87% 30.08 in 3.0 mi Calm Calm - N/A Snow Light Snow
3:17 AM 33.8 °F 30.8 °F 32.0 °F 93% 30.06 in 9.0 mi ESE 3.5 mph - 0.01 in   Overcast
3:53 AM 34.0 °F - 33.1 °F 96% 30.09 in 10.0 mi Calm Calm - 0.02 in   Overcast
4:53 AM 34.0 °F - 32.0 °F 92% 30.09 in 10.0 mi Calm Calm - 0.01 in   Partly Cloudy
5:53 AM 30.0 °F 24.1 °F 28.9 °F 96% 30.08 in 10.0 mi WNW 5.8 mph - N/A   Scattered Clouds
6:53 AM 35.1 °F 27.9 °F 30.0 °F 82% 30.06 in 10.0 mi West 9.2 mph - N/A   Partly Cloudy
7:53 AM 34.0 °F 28.8 °F 28.0 °F 79% 30.06 in 10.0 mi West 5.8 mph - N/A   Partly Cloudy
8:53 AM 36.0 °F 32.1 °F 28.9 °F 76% 30.06 in 10.0 mi SW 4.6 mph - N/A   Partly Cloudy
9:53 AM 37.9 °F 32.7 °F 32.0 °F 79% 30.05 in 10.0 mi SW 6.9 mph - 0.02 in   Partly Cloudy
10:53 AM 41.0 °F 33.1 °F 32.0 °F 70% 30.04 in 10.0 mi WSW 15.0 mph - N/A   Partly Cloudy
11:53 AM 42.1 °F 34.9 °F 30.0 °F 62% 30.03 in 10.0 mi WSW 13.8 mph 23.0 mph N/A   Mostly Cloudy
12:53 PM 44.1 °F 35.9 °F 26.1 °F 49% 30.01 in 10.0 mi WSW 19.6 mph 27.6 mph N/A   Mostly Cloudy
1:53 PM 45.0 °F 37.4 °F 25.0 °F 46% 30.00 in 10.0 mi WSW 18.4 mph 28.8 mph N/A   Scattered Clouds
2:53 PM 45.0 °F 36.9 °F 23.0 °F 42% 29.98 in 10.0 mi West 20.7 mph 31.1 mph N/A   Clear
3:53 PM 46.0 °F 39.6 °F 21.9 °F 39% 29.96 in 10.0 mi West 15.0 mph 28.8 mph N/A   Clear
4:53 PM 46.9 °F - 21.0 °F 36% 29.94 in 10.0 mi WSW 17.3 mph 25.3 mph N/A   Clear
5:53 PM 46.0 °F 38.8 °F 21.0 °F 37% 29.94 in 10.0 mi WSW 18.4 mph 26.5 mph N/A   Partly Cloudy
6:53 PM 45.0 °F 39.3 °F 23.0 °F 42% 29.93 in 10.0 mi West 11.5 mph 18.4 mph N/A   Mostly Cloudy
7:53 PM 43.0 °F 39.5 °F 21.9 °F 43% 29.94 in 10.0 mi WSW 5.8 mph - N/A   Overcast
8:53 PM 43.0 °F 39.5 °F 21.0 °F 42% 29.94 in 10.0 mi SW 5.8 mph - N/A   Overcast
9:53 PM 41.0 °F 35.8 °F 19.9 °F 43% 29.93 in 10.0 mi SW 8.1 mph - N/A   Clear
10:53 PM 39.9 °F 35.1 °F 21.0 °F 47% 29.92 in 10.0 mi SW 6.9 mph - N/A   Clear
11:53 PM 39.9 °F 34.5 °F 19.9 °F 45% 29.91 in 10.0 mi SW 8.1 mph - N/A   Clear